Hourly Data Report for October 27, 2015

All times are specified in Local Standard Time (LST). Add 1 hour to adjust for Daylight Saving Time where and when it is observed.

KUGLUKTUK A
NUNAVUT

67°49'00.000" N
115°08'38.000" W
22.60 m
2300903
71938
YCO

Download Data

Hourly Data (October 2015)
Hourly Data Report for October 27, 2015
Temp Definition
°C
Dew Point Temp Definition
°C
Rel Hum Definition
%
Wind Dir Definition
10's deg

Wind Spd Definition
km/h
Visibility Definition
km
Stn Press Definition
kPa
Hmdx Definition


Wind Chill Definition


Weather Definition


TIME
00:00 Legend Double Dagger -5.7 -6.8 92 27 17 19.3 101.42   -12 Snow
01:00 Legend Double Dagger -5.1 -6.9 87 30 22 19.3 101.47   -12 Snow
02:00 Legend Double Dagger -5.1 -7.7 82 33 23 19.3 101.53   -12 Snow
03:00 Legend Double Dagger -5.5 -7.6 85 28 13 24.1 101.55   -11 Snow
04:00 Legend Double Dagger -5.3 -8.7 77 30 23 24.1 101.59   -12 Snow
05:00 Legend Double Dagger -6.3 -7.7 90 26 19 24.1 101.55   -13 Snow
06:00 Legend Double Dagger -7.7 -9.8 85 25 26 24.1 101.58   -16 Snow,Blowing Snow
07:00
08:00 Legend Double Dagger -8.0 -10.7 81 25 22 19.3 101.55   -16 Snow,Blowing Snow
09:00 Legend Double Dagger -8.0 -10.7 81 26 21 24.1 101.56   -16 LegendNANA
10:00 Legend Double Dagger -7.7 -10.4 81 26 20 24.1 101.56   -15 LegendNANA
11:00 Legend Double Dagger -8.1 -11.0 80 26 19 24.1 101.54   -15 Mostly Cloudy
12:00 Legend Double Dagger -7.5 -10.7 78 25 13 24.1 101.57   -13 LegendNANA
13:00 Legend Double Dagger -7.6 -10.3 81 24 18 24.1 101.57   -14 LegendNANA
14:00 Legend Double Dagger -6.9 -9.6 81 25 13 24.1 101.59   -12 Mostly Cloudy
15:00 Legend Double Dagger -7.1 -9.7 82 28 13 24.1 101.56   -13 LegendNANA
16:00 Legend Double Dagger -8.4 -10.8 83 25 17 24.1 101.54   -15 LegendNANA
17:00 Legend Double Dagger -9.0 -11.5 82 26 18 24.1 101.54   -16 Mostly Cloudy
18:00 Legend Double Dagger -10.2 -12.3 85 27 19 24.1 101.53   -18 LegendNANA
19:00 Legend Double Dagger -12.5 -14.4 86 23 19 24.1 101.52   -21 LegendNANA
20:00 Legend Double Dagger -12.2 -14.7 82 24 19 24.1 101.53   -20 Mostly Cloudy
21:00 Legend Double Dagger -13.2 -15.5 83 22 14 24.1 101.52   -20 LegendNANA
22:00 Legend Double Dagger -12.8 -15.4 81 36 3 24.1 101.52   -15 LegendNANA
23:00 Legend Double Dagger -13.4 -15.4 85 36 3 24.1 101.52   -15 Mostly Cloudy

Notes on Data Quality.

Legend

  • E = Estimated
  • M = Missing
  • NA = Not Available
  • ‡ = Partner data that is not subject to review by the National Climate Archives
Date modified: